GEFSSGP_prec_meanprec_234.txt.gz
QPF
0.02 0.03 0.02 0.02 0.03 0.03 0.02 0.03 0.04 0.05 0.05 0.02 0.03 0.03 0.02 0.02 0.03 0.03 0.04 0.04 0.02 0.01 0.03 0.06 0.08 0.10 0.11 0.11 0.11 0.12 0.07 0.05 0.05 0.06 0.07 0.07 0.07 0.07 0.06 0.04 0.06 0.07 0.06 0.04 0.05 0.06 0.07 0.06 0.09
0.03 0.03 0.02 0.02 0.03 0.02 0.02 0.03 0.05 0.04 0.03 0.02 0.03 0.05 0.02 0.01 0.01 0.02 0.08 0.06 0.02 0.01 0.02 0.04 0.07 0.09 0.11 0.10 0.10 0.08 0.05 0.04 0.04 0.05 0.05 0.05 0.06 0.06 0.05 0.05 0.05 0.06 0.04 0.04 0.04 0.05 0.06 0.06 0.10
0.02 0.02 0.01 0.01 0.02 0.02 0.02 0.03 0.04 0.03 0.02 0.02 0.03 0.04 0.03 0.02 0.01 0.02 0.09 0.07 0.02 0.01 0.03 0.06 0.09 0.08 0.07 0.08 0.07 0.05 0.04 0.04 0.04 0.05 0.06 0.06 0.05 0.05 0.04 0.06 0.06 0.06 0.05 0.05 0.04 0.04 0.04 0.04 0.07
0.01 0.01 0.01 0.02 0.02 0.02 0.02 0.03 0.04 0.03 0.01 0.02 0.02 0.03 0.03 0.02 0.02 0.02 0.04 0.04 0.02 0.02 0.04 0.09 0.08 0.05 0.07 0.06 0.04 0.02 0.05 0.06 0.05 0.05 0.06 0.06 0.06 0.07 0.07 0.08 0.05 0.07 0.08 0.06 0.04 0.03 0.04 0.04 0.04
0.00 0.01 0.01 0.02 0.03 0.03 0.02 0.03 0.04 0.04 0.02 0.02 0.03 0.03 0.03 0.03 0.04 0.04 0.03 0.02 0.02 0.02 0.04 0.06 0.06 0.06 0.06 0.05 0.03 0.02 0.04 0.06 0.06 0.06 0.06 0.08 0.08 0.07 0.05 0.04 0.04 0.06 0.06 0.06 0.06 0.05 0.05 0.05 0.04
0.01 0.01 0.02 0.02 0.03 0.04 0.05 0.03 0.03 0.03 0.02 0.02 0.03 0.03 0.03 0.03 0.05 0.08 0.05 0.04 0.03 0.02 0.04 0.06 0.06 0.08 0.06 0.05 0.03 0.03 0.04 0.06 0.06 0.06 0.05 0.06 0.06 0.05 0.04 0.03 0.04 0.05 0.04 0.04 0.06 0.07 0.07 0.07 0.05
0.01 0.02 0.02 0.02 0.03 0.06 0.06 0.04 0.03 0.03 0.03 0.02 0.02 0.03 0.03 0.04 0.08 0.11 0.06 0.04 0.03 0.04 0.05 0.04 0.04 0.06 0.06 0.05 0.04 0.03 0.04 0.05 0.05 0.05 0.04 0.04 0.04 0.03 0.03 0.03 0.04 0.04 0.05 0.05 0.05 0.06 0.08 0.08 0.05
0.01 0.01 0.02 0.02 0.03 0.05 0.05 0.06 0.04 0.03 0.02 0.02 0.02 0.03 0.03 0.07 0.11 0.08 0.03 0.02 0.02 0.03 0.04 0.03 0.02 0.04 0.04 0.04 0.04 0.04 0.05 0.05 0.04 0.04 0.05 0.04 0.03 0.02 0.03 0.03 0.03 0.04 0.04 0.05 0.04 0.05 0.05 0.04 0.04
0.00 0.01 0.01 0.01 0.02 0.03 0.03 0.07 0.06 0.04 0.02 0.01 0.01 0.03 0.04 0.06 0.08 0.04 0.03 0.02 0.01 0.01 0.01 0.02 0.01 0.01 0.02 0.02 0.02 0.03 0.03 0.03 0.03 0.02 0.02 0.03 0.03 0.03 0.03 0.03 0.05 0.05 0.04 0.04 0.03 0.02 0.02 0.02 0.03
0.00 0.01 0.01 0.01 0.01 0.02 0.02 0.04 0.06 0.08 0.06 0.02 0.01 0.02 0.03 0.03 0.02 0.02 0.03 0.02 0.01 0.01 0.01 0.01 0.00 0.01 0.01 0.01 0.01 0.01 0.00 0.01 0.02 0.02 0.01 0.02 0.03 0.06 0.05 0.03 0.04 0.03 0.02 0.01 0.01 0.02 0.02 0.02 0.03
0.00 0.01 0.01 0.01 0.01 0.01 0.02 0.02 0.04 0.09 0.07 0.04 0.02 0.03 0.03 0.02 0.01 0.01 0.01 0.01 0.01 0.00 0.00 0.00 0.01 0.01 0.00 0.01 0.00 0.00 0.00 0.00 0.00 0.00 0.01 0.01 0.02 0.04 0.03 0.01 0.01 0.01 0.00 0.01 0.01 0.01 0.03 0.03 0.02
0.01 0.01 0.01 0.01 0.00 0.02 0.02 0.01 0.02 0.04 0.06 0.05 0.02 0.02 0.02 0.02 0.03 0.01 0.01 0.01 0.01 0.01 0.01 0.00 0.01 0.00 0.00 0.00 0.00 0.00 0.00 0.00 0.00 0.00 0.00 0.01 0.03 0.05 0.03 0.02 0.01 0.00 0.01 0.01 0.01 0.03 0.05 0.03 0.02
0.01 0.01 0.01 0.01 0.00 0.01 0.02 0.02 0.02 0.02 0.04 0.04 0.04 0.02 0.02 0.03 0.03 0.02 0.01 0.01 0.01 0.02 0.01 0.00 0.01 0.00 0.00 0.00 0.01 0.00 0.00 0.00 0.00 0.00 0.00 0.00 0.02 0.04 0.02 0.01 0.01 0.02 0.03 0.02 0.02 0.03 0.06 0.05 0.03
0.01 0.01 0.01 0.00 0.00 0.00 0.01 0.01 0.01 0.02 0.04 0.04 0.03 0.03 0.02 0.02 0.03 0.02 0.02 0.03 0.02 0.02 0.01 0.01 0.01 0.01 0.01 0.01 0.01 0.00 0.00 0.00 0.00 0.00 0.01 0.01 0.01 0.01 0.01 0.01 0.02 0.05 0.05 0.03 0.02 0.03 0.05 0.05 0.03
0.01 0.01 0.02 0.01 0.01 0.00 0.01 0.01 0.01 0.02 0.03 0.04 0.03 0.02 0.04 0.04 0.03 0.03 0.04 0.06 0.06 0.04 0.02 0.01 0.01 0.01 0.02 0.02 0.01 0.00 0.00 0.00 0.00 0.01 0.01 0.01 0.01 0.00 0.00 0.01 0.04 0.07 0.06 0.04 0.02 0.02 0.03 0.03 0.03
0.02 0.02 0.03 0.02 0.01 0.01 0.02 0.02 0.01 0.02 0.03 0.03 0.03 0.02 0.02 0.02 0.03 0.03 0.03 0.03 0.06 0.05 0.03 0.01 0.01 0.01 0.01 0.01 0.00 0.00 0.00 0.00 0.00 0.00 0.00 0.00 0.01 0.00 0.00 0.01 0.01 0.03 0.03 0.03 0.02 0.01 0.02 0.02 0.02
0.02 0.02 0.02 0.02 0.02 0.01 0.02 0.02 0.01 0.02 0.03 0.02 0.02 0.02 0.02 0.01 0.01 0.02 0.02 0.02 0.04 0.03 0.03 0.02 0.02 0.01 0.01 0.01 0.01 0.00 0.00 0.01 0.00 0.00 0.00 0.00 0.00 0.00 0.00 0.00 0.00 0.00 0.01 0.01 0.01 0.01 0.01 0.01 0.01
0.01 0.02 0.02 0.02 0.02 0.01 0.01 0.01 0.00 0.01 0.01 0.01 0.02 0.02 0.02 0.01 0.01 0.00 0.01 0.02 0.03 0.04 0.03 0.02 0.02 0.01 0.02 0.01 0.01 0.01 0.01 0.01 0.01 0.00 0.00 0.00 0.00 0.00 0.00 0.00 0.00 0.00 0.01 0.01 0.01 0.01 0.02 0.01 0.01
0.01 0.02 0.02 0.02 0.01 0.01 0.01 0.01 0.00 0.00 0.01 0.01 0.01 0.01 0.02 0.01 0.00 0.00 0.01 0.01 0.02 0.03 0.04 0.03 0.02 0.02 0.02 0.01 0.01 0.01 0.01 0.01 0.01 0.01 0.01 0.00 0.00 0.00 0.00 0.00 0.00 0.00 0.01 0.01 0.01 0.02 0.02 0.02 0.01
0.00 0.01 0.01 0.02 0.01 0.01 0.01 0.01 0.01 0.00 0.00 0.00 0.01 0.01 0.01 0.01 0.00 0.00 0.00 0.00 0.01 0.04 0.04 0.04 0.03 0.02 0.02 0.02 0.02 0.02 0.01 0.01 0.01 0.00 0.01 0.00 0.00 0.00 0.00 0.00 0.01 0.01 0.01 0.02 0.02 0.02 0.02 0.01 0.01
0.01 0.01 0.01 0.01 0.01 0.01 0.01 0.01 0.00 0.00 0.00 0.00 0.00 0.00 0.00 0.01 0.00 0.00 0.00 0.00 0.01 0.02 0.04 0.06 0.03 0.02 0.02 0.02 0.02 0.02 0.02 0.01 0.01 0.00 0.00 0.00 0.01 0.01 0.00 0.00 0.01 0.01 0.01 0.02 0.01 0.01 0.02 0.02 0.01
0.01 0.01 0.00 0.00 0.01 0.02 0.01 0.01 0.01 0.00 0.00 0.00 0.00 0.00 0.00 0.00 0.01 0.01 0.01 0.01 0.01 0.02 0.04 0.06 0.03 0.02 0.02 0.02 0.02 0.01 0.01 0.02 0.02 0.01 0.01 0.00 0.00 0.00 0.00 0.00 0.01 0.01 0.01 0.02 0.01 0.00 0.01 0.02 0.03
0.01 0.00 0.00 0.01 0.01 0.02 0.01 0.01 0.01 0.00 0.00 0.00 0.00 0.00 0.00 0.00 0.01 0.01 0.01 0.01 0.01 0.02 0.04 0.05 0.03 0.02 0.02 0.02 0.02 0.02 0.02 0.01 0.01 0.01 0.01 0.01 0.01 0.00 0.00 0.00 0.00 0.01 0.01 0.01 0.01 0.01 0.01 0.02 0.03
0.00 0.00 0.00 0.00 0.02 0.02 0.01 0.01 0.01 0.00 0.00 0.00 0.00 0.00 0.00 0.00 0.01 0.01 0.01 0.01 0.01 0.02 0.03 0.05 0.03 0.02 0.02 0.02 0.02 0.02 0.02 0.02 0.01 0.01 0.01 0.01 0.01 0.01 0.01 0.00 0.00 0.00 0.00 0.01 0.01 0.01 0.01 0.02 0.02
0.01 0.01 0.02 0.02 0.02 0.02 0.01 0.01 0.01 0.00 0.00 0.00 0.00 0.00 0.00 0.00 0.01 0.02 0.01 0.01 0.01 0.01 0.02 0.04 0.03 0.02 0.02 0.02 0.01 0.01 0.01 0.02 0.02 0.02 0.01 0.01 0.01 0.01 0.01 0.01 0.01 0.00 0.00 0.00 0.00 0.01 0.01 0.01 0.01
0.01 0.01 0.01 0.02 0.02 0.02 0.01 0.01 0.01 0.01 0.00 0.00 0.00 0.00 0.00 0.01 0.01 0.01 0.00 0.00 0.01 0.01 0.01 0.02 0.03 0.02 0.02 0.03 0.02 0.01 0.01 0.01 0.02 0.02 0.02 0.01 0.00 0.01 0.01 0.01 0.01 0.01 0.01 0.00 0.01 0.01 0.01 0.00 0.00
0.01 0.01 0.00 0.01 0.02 0.02 0.01 0.01 0.00 0.00 0.00 0.00 0.00 0.00 0.00 0.01 0.01 0.00 0.01 0.00 0.01 0.01 0.01 0.01 0.02 0.02 0.02 0.04 0.03 0.01 0.01 0.01 0.01 0.02 0.02 0.01 0.00 0.00 0.00 0.00 0.00 0.01 0.01 0.01 0.01 0.02 0.01 0.00 0.00
0.01 0.01 0.01 0.02 0.02 0.02 0.01 0.01 0.01 0.01 0.00 0.00 0.00 0.00 0.00 0.01 0.01 0.01 0.01 0.01 0.01 0.01 0.00 0.01 0.01 0.03 0.02 0.02 0.02 0.01 0.01 0.00 0.01 0.01 0.01 0.00 0.00 0.00 0.00 0.00 0.00 0.01 0.01 0.01 0.01 0.01 0.01 0.01 0.00
0.00 0.01 0.01 0.01 0.01 0.01 0.01 0.01 0.00 0.00 0.00 0.00 0.00 0.00 0.00 0.00 0.01 0.01 0.01 0.02 0.01 0.01 0.00 0.00 0.01 0.03 0.03 0.01 0.01 0.02 0.01 0.00 0.00 0.00 0.01 0.01 0.00 0.00 0.01 0.00 0.00 0.00 0.00 0.00 0.01 0.01 0.01 0.01 0.01
0.00 0.00 0.01 0.01 0.01 0.01 0.01 0.01 0.01 0.00 0.00 0.00 0.00 0.00 0.00 0.00 0.00 0.01 0.01 0.01 0.02 0.02 0.01 0.01 0.01 0.01 0.01 0.01 0.02 0.02 0.02 0.01 0.01 0.00 0.00 0.01 0.00 0.00 0.00 0.00 0.00 0.00 0.00 0.00 0.00 0.01 0.01 0.01 0.01

GEFSSGP_prec_meanprec_240.txt.gz
QPF
0.02 0.04 0.04 0.07 0.15 0.16 0.11 0.11 0.08 0.07 0.02 0.01 0.00 0.01 0.02 0.05 0.07 0.06 0.06 0.05 0.06 0.04 0.05 0.04 0.04 0.04 0.03 0.04 0.05 0.05 0.05 0.06 0.06 0.06 0.07 0.05 0.06 0.07 0.06 0.04 0.04 0.04 0.04 0.05 0.08 0.07 0.07 0.10 0.09
0.01 0.02 0.04 0.10 0.16 0.15 0.12 0.12 0.10 0.05 0.01 0.00 0.00 0.01 0.02 0.02 0.02 0.03 0.08 0.07 0.03 0.03 0.04 0.04 0.05 0.05 0.05 0.05 0.04 0.03 0.03 0.05 0.04 0.05 0.06 0.05 0.05 0.05 0.04 0.04 0.04 0.05 0.05 0.05 0.06 0.06 0.12 0.18 0.10
0.01 0.01 0.05 0.11 0.12 0.13 0.13 0.13 0.07 0.02 0.00 0.00 0.00 0.01 0.02 0.02 0.03 0.04 0.09 0.08 0.02 0.02 0.03 0.03 0.05 0.06 0.04 0.03 0.03 0.02 0.02 0.03 0.05 0.04 0.04 0.03 0.03 0.03 0.03 0.05 0.06 0.06 0.04 0.06 0.06 0.05 0.09 0.17 0.16
0.01 0.03 0.05 0.10 0.10 0.11 0.11 0.10 0.05 0.03 0.01 0.00 0.01 0.02 0.02 0.02 0.02 0.04 0.05 0.04 0.04 0.03 0.03 0.02 0.03 0.03 0.03 0.02 0.03 0.02 0.02 0.04 0.05 0.05 0.05 0.03 0.03 0.02 0.04 0.06 0.07 0.06 0.03 0.04 0.05 0.04 0.03 0.05 0.06
0.03 0.04 0.09 0.09 0.08 0.09 0.08 0.05 0.03 0.04 0.03 0.02 0.01 0.03 0.05 0.05 0.03 0.03 0.04 0.03 0.04 0.05 0.02 0.01 0.03 0.03 0.03 0.03 0.02 0.01 0.01 0.04 0.05 0.05 0.06 0.05 0.04 0.05 0.06 0.06 0.05 0.05 0.04 0.04 0.04 0.04 0.04 0.04 0.04
0.04 0.05 0.10 0.10 0.09 0.09 0.05 0.02 0.02 0.03 0.03 0.02 0.01 0.03 0.06 0.07 0.06 0.06 0.05 0.06 0.05 0.05 0.03 0.01 0.03 0.03 0.03 0.03 0.02 0.01 0.01 0.02 0.04 0.05 0.06 0.07 0.09 0.09 0.06 0.03 0.02 0.02 0.02 0.03 0.03 0.04 0.03 0.04 0.04
0.04 0.05 0.09 0.09 0.10 0.10 0.07 0.03 0.03 0.05 0.05 0.03 0.02 0.04 0.06 0.09 0.07 0.07 0.08 0.05 0.04 0.04 0.03 0.02 0.01 0.01 0.02 0.02 0.02 0.01 0.01 0.02 0.03 0.04 0.04 0.05 0.05 0.04 0.03 0.02 0.02 0.02 0.02 0.03 0.03 0.04 0.04 0.03 0.03
0.02 0.04 0.06 0.08 0.09 0.12 0.07 0.03 0.03 0.05 0.03 0.01 0.02 0.05 0.06 0.08 0.06 0.06 0.04 0.02 0.01 0.02 0.03 0.02 0.01 0.02 0.02 0.01 0.02 0.02 0.02 0.03 0.04 0.05 0.04 0.03 0.02 0.02 0.03 0.03 0.04 0.03 0.03 0.03 0.03 0.03 0.03 0.02 0.02
0.01 0.05 0.07 0.07 0.08 0.09 0.04 0.05 0.03 0.02 0.01 0.01 0.02 0.04 0.05 0.05 0.04 0.04 0.03 0.02 0.01 0.01 0.02 0.01 0.01 0.02 0.02 0.02 0.01 0.02 0.02 0.03 0.03 0.03 0.04 0.04 0.04 0.02 0.02 0.02 0.03 0.04 0.03 0.03 0.03 0.02 0.02 0.02 0.02
0.01 0.07 0.07 0.06 0.05 0.05 0.04 0.05 0.04 0.04 0.03 0.01 0.02 0.01 0.03 0.03 0.03 0.04 0.05 0.04 0.02 0.01 0.01 0.01 0.00 0.01 0.02 0.02 0.01 0.02 0.01 0.01 0.01 0.01 0.01 0.01 0.02 0.02 0.01 0.01 0.02 0.02 0.02 0.01 0.02 0.02 0.03 0.03 0.02
0.01 0.04 0.04 0.03 0.02 0.02 0.02 0.02 0.02 0.05 0.07 0.05 0.03 0.02 0.03 0.03 0.03 0.04 0.04 0.03 0.01 0.01 0.00 0.01 0.01 0.02 0.03 0.02 0.01 0.01 0.01 0.01 0.01 0.01 0.01 0.02 0.01 0.01 0.01 0.01 0.02 0.01 0.01 0.01 0.01 0.02 0.02 0.01 0.01
0.01 0.02 0.03 0.02 0.00 0.01 0.02 0.01 0.02 0.03 0.07 0.06 0.04 0.03 0.04 0.04 0.03 0.03 0.02 0.02 0.01 0.01 0.02 0.02 0.03 0.03 0.02 0.01 0.00 0.00 0.01 0.00 0.01 0.01 0.01 0.01 0.01 0.01 0.01 0.02 0.01 0.02 0.02 0.02 0.02 0.02 0.01 0.01 0.01
0.01 0.03 0.01 0.00 0.00 0.01 0.02 0.01 0.02 0.04 0.04 0.05 0.05 0.03 0.03 0.05 0.05 0.03 0.02 0.02 0.02 0.03 0.03 0.02 0.04 0.05 0.02 0.01 0.00 0.00 0.00 0.00 0.00 0.01 0.01 0.00 0.01 0.01 0.01 0.02 0.02 0.02 0.02 0.03 0.02 0.02 0.02 0.02 0.02
0.01 0.01 0.00 0.00 0.00 0.01 0.01 0.02 0.02 0.03 0.03 0.02 0.04 0.04 0.04 0.03 0.04 0.04 0.03 0.03 0.04 0.04 0.03 0.02 0.04 0.04 0.01 0.01 0.00 0.00 0.00 0.00 0.00 0.01 0.01 0.00 0.00 0.01 0.01 0.02 0.03 0.03 0.02 0.02 0.01 0.02 0.02 0.02 0.03
0.00 0.01 0.02 0.01 0.00 0.00 0.02 0.03 0.02 0.02 0.02 0.03 0.04 0.05 0.04 0.03 0.03 0.04 0.04 0.03 0.02 0.02 0.03 0.04 0.03 0.03 0.03 0.01 0.00 0.00 0.00 0.00 0.00 0.01 0.01 0.00 0.01 0.02 0.03 0.05 0.05 0.03 0.02 0.01 0.01 0.01 0.02 0.03 0.03
0.01 0.04 0.05 0.03 0.00 0.00 0.02 0.04 0.03 0.01 0.01 0.02 0.03 0.03 0.03 0.02 0.01 0.03 0.03 0.01 0.01 0.02 0.02 0.03 0.02 0.01 0.01 0.01 0.01 0.00 0.00 0.00 0.00 0.01 0.01 0.00 0.00 0.01 0.03 0.04 0.05 0.03 0.02 0.02 0.03 0.02 0.03 0.04 0.04
0.03 0.06 0.06 0.03 0.01 0.01 0.02 0.04 0.02 0.01 0.02 0.02 0.01 0.01 0.02 0.02 0.02 0.02 0.02 0.01 0.00 0.01 0.01 0.02 0.01 0.01 0.01 0.02 0.01 0.01 0.00 0.00 0.00 0.00 0.00 0.00 0.00 0.00 0.01 0.01 0.02 0.02 0.03 0.03 0.03 0.03 0.04 0.05 0.04
0.03 0.03 0.02 0.03 0.02 0.02 0.02 0.02 0.01 0.01 0.01 0.01 0.01 0.01 0.02 0.02 0.02 0.02 0.01 0.00 0.00 0.01 0.01 0.01 0.00 0.00 0.01 0.01 0.01 0.01 0.00 0.00 0.00 0.00 0.00 0.00 0.00 0.00 0.00 0.00 0.00 0.00 0.01 0.01 0.02 0.03 0.03 0.04 0.03
0.01 0.01 0.01 0.01 0.01 0.02 0.02 0.02 0.01 0.00 0.01 0.01 0.01 0.01 0.01 0.02 0.02 0.01 0.01 0.00 0.00 0.01 0.02 0.02 0.01 0.00 0.01 0.02 0.02 0.01 0.01 0.01 0.01 0.01 0.01 0.01 0.01 0.00 0.00 0.00 0.01 0.00 0.00 0.01 0.01 0.03 0.04 0.03 0.03
0.01 0.01 0.01 0.01 0.01 0.02 0.02 0.01 0.01 0.00 0.00 0.00 0.00 0.00 0.01 0.01 0.02 0.01 0.00 0.01 0.00 0.01 0.02 0.02 0.02 0.01 0.01 0.02 0.02 0.02 0.01 0.01 0.01 0.01 0.01 0.01 0.01 0.01 0.00 0.00 0.01 0.01 0.02 0.03 0.02 0.03 0.04 0.04 0.04
0.01 0.01 0.01 0.01 0.01 0.02 0.02 0.02 0.01 0.00 0.00 0.00 0.00 0.00 0.00 0.01 0.02 0.01 0.01 0.01 0.00 0.01 0.02 0.03 0.03 0.01 0.01 0.01 0.02 0.01 0.01 0.01 0.01 0.01 0.01 0.01 0.01 0.01 0.01 0.01 0.01 0.01 0.02 0.03 0.03 0.03 0.04 0.05 0.05
0.02 0.01 0.00 0.00 0.01 0.03 0.02 0.03 0.02 0.00 0.00 0.00 0.00 0.00 0.01 0.01 0.01 0.01 0.00 0.01 0.01 0.01 0.01 0.04 0.04 0.02 0.01 0.01 0.01 0.01 0.02 0.02 0.01 0.01 0.01 0.01 0.01 0.01 0.01 0.01 0.01 0.02 0.02 0.02 0.02 0.02 0.04 0.06 0.06
0.01 0.00 0.00 0.00 0.01 0.01 0.01 0.03 0.03 0.01 0.01 0.01 0.00 0.00 0.00 0.00 0.01 0.01 0.01 0.00 0.01 0.01 0.01 0.02 0.03 0.02 0.02 0.01 0.01 0.02 0.03 0.03 0.02 0.01 0.01 0.00 0.00 0.00 0.00 0.00 0.01 0.01 0.01 0.01 0.01 0.02 0.03 0.05 0.06
0.00 0.01 0.01 0.01 0.01 0.02 0.01 0.02 0.04 0.02 0.01 0.01 0.00 0.00 0.00 0.00 0.01 0.01 0.01 0.00 0.01 0.01 0.01 0.02 0.04 0.02 0.02 0.01 0.01 0.01 0.02 0.03 0.03 0.02 0.01 0.01 0.01 0.01 0.00 0.00 0.00 0.01 0.01 0.01 0.02 0.02 0.02 0.03 0.03
0.01 0.02 0.04 0.04 0.04 0.04 0.01 0.03 0.04 0.01 0.00 0.00 0.00 0.00 0.00 0.00 0.00 0.01 0.01 0.00 0.01 0.01 0.01 0.02 0.03 0.02 0.02 0.01 0.01 0.01 0.01 0.03 0.03 0.03 0.02 0.03 0.03 0.02 0.01 0.00 0.01 0.00 0.00 0.00 0.01 0.02 0.02 0.02 0.01
0.01 0.02 0.05 0.06 0.05 0.04 0.02 0.03 0.03 0.00 0.00 0.00 0.00 0.00 0.00 0.00 0.00 0.01 0.01 0.01 0.01 0.01 0.01 0.01 0.02 0.03 0.02 0.02 0.01 0.01 0.01 0.02 0.02 0.02 0.03 0.03 0.03 0.03 0.02 0.01 0.01 0.00 0.00 0.00 0.01 0.01 0.01 0.01 0.01
0.01 0.01 0.02 0.03 0.03 0.04 0.03 0.03 0.02 0.00 0.00 0.00 0.00 0.00 0.00 0.00 0.01 0.01 0.01 0.01 0.01 0.01 0.01 0.01 0.02 0.02 0.02 0.03 0.02 0.02 0.01 0.02 0.02 0.01 0.01 0.02 0.03 0.02 0.01 0.01 0.01 0.01 0.00 0.00 0.00 0.01 0.01 0.01 0.01
0.01 0.01 0.02 0.03 0.05 0.05 0.04 0.03 0.02 0.01 0.00 0.00 0.01 0.01 0.01 0.01 0.01 0.02 0.02 0.01 0.01 0.00 0.00 0.01 0.01 0.02 0.02 0.03 0.03 0.03 0.01 0.01 0.01 0.01 0.01 0.01 0.01 0.01 0.00 0.00 0.00 0.00 0.00 0.00 0.00 0.00 0.00 0.00 0.01
0.00 0.01 0.02 0.03 0.04 0.05 0.05 0.03 0.01 0.00 0.00 0.00 0.01 0.01 0.02 0.02 0.01 0.01 0.01 0.01 0.00 0.01 0.01 0.01 0.01 0.02 0.02 0.02 0.02 0.02 0.02 0.01 0.01 0.01 0.01 0.00 0.00 0.00 0.00 0.00 0.00 0.00 0.00 0.00 0.00 0.00 0.00 0.00 0.00
0.01 0.01 0.01 0.02 0.02 0.02 0.04 0.03 0.01 0.00 0.01 0.00 0.01 0.01 0.02 0.03 0.02 0.00 0.00 0.01 0.01 0.01 0.01 0.02 0.02 0.02 0.02 0.02 0.02 0.02 0.02 0.02 0.01 0.01 0.01 0.00 0.00 0.00 0.00 0.00 0.00 0.00 0.00 0.00 0.00 0.00 0.00 0.00 0.00

GEFSSGP_prec_meanprec_246.txt.gz
QPF
0.02 0.05 0.06 0.08 0.11 0.09 0.10 0.10 0.07 0.07 0.04 0.01 0.01 0.01 0.02 0.02 0.02 0.02 0.05 0.09 0.08 0.03 0.02 0.04 0.05 0.03 0.03 0.02 0.02 0.03 0.04 0.05 0.05 0.05 0.05 0.05 0.06 0.06 0.05 0.05 0.05 0.06 0.07 0.05 0.04 0.08 0.09 0.06 0.03
0.02 0.03 0.06 0.11 0.10 0.07 0.09 0.11 0.11 0.08 0.03 0.01 0.00 0.01 0.01 0.01 0.02 0.03 0.05 0.08 0.06 0.02 0.02 0.02 0.03 0.04 0.03 0.02 0.01 0.02 0.03 0.03 0.04 0.03 0.04 0.03 0.04 0.05 0.04 0.04 0.05 0.05 0.06 0.06 0.05 0.13 0.14 0.06 0.04
0.02 0.04 0.07 0.11 0.09 0.08 0.09 0.10 0.10 0.05 0.02 0.01 0.00 0.01 0.01 0.02 0.02 0.03 0.05 0.04 0.02 0.01 0.01 0.03 0.03 0.03 0.02 0.01 0.01 0.02 0.03 0.04 0.04 0.03 0.02 0.03 0.03 0.04 0.04 0.04 0.04 0.05 0.05 0.05 0.04 0.07 0.14 0.10 0.05
0.02 0.04 0.07 0.07 0.07 0.08 0.09 0.09 0.07 0.05 0.04 0.01 0.00 0.01 0.01 0.02 0.02 0.04 0.04 0.02 0.01 0.01 0.01 0.01 0.02 0.02 0.02 0.01 0.01 0.02 0.04 0.06 0.06 0.04 0.03 0.04 0.04 0.03 0.03 0.05 0.05 0.03 0.02 0.02 0.02 0.03 0.05 0.06 0.06
0.02 0.04 0.05 0.06 0.07 0.11 0.13 0.10 0.07 0.06 0.04 0.02 0.00 0.01 0.01 0.02 0.03 0.04 0.04 0.02 0.01 0.01 0.01 0.01 0.01 0.02 0.01 0.01 0.01 0.02 0.03 0.04 0.04 0.04 0.03 0.03 0.03 0.03 0.03 0.04 0.03 0.02 0.01 0.02 0.02 0.03 0.03 0.05 0.05
0.02 0.03 0.04 0.05 0.10 0.09 0.13 0.12 0.07 0.06 0.04 0.02 0.00 0.01 0.01 0.04 0.06 0.04 0.03 0.02 0.01 0.01 0.01 0.01 0.02 0.02 0.01 0.01 0.01 0.02 0.03 0.04 0.04 0.04 0.04 0.04 0.04 0.05 0.05 0.03 0.02 0.01 0.02 0.02 0.03 0.04 0.04 0.04 0.04
0.03 0.03 0.04 0.07 0.10 0.09 0.13 0.10 0.10 0.08 0.04 0.03 0.01 0.01 0.02 0.06 0.07 0.04 0.02 0.01 0.02 0.02 0.01 0.01 0.01 0.01 0.01 0.01 0.02 0.04 0.06 0.06 0.06 0.05 0.06 0.05 0.03 0.03 0.03 0.03 0.02 0.02 0.02 0.02 0.02 0.04 0.04 0.04 0.04
0.03 0.03 0.04 0.05 0.06 0.08 0.10 0.08 0.08 0.07 0.04 0.02 0.01 0.01 0.02 0.05 0.06 0.05 0.02 0.01 0.02 0.01 0.00 0.00 0.00 0.01 0.01 0.01 0.02 0.03 0.04 0.05 0.05 0.04 0.04 0.05 0.04 0.03 0.04 0.05 0.04 0.02 0.02 0.02 0.02 0.03 0.04 0.03 0.03
0.03 0.05 0.05 0.05 0.04 0.05 0.06 0.08 0.07 0.06 0.04 0.02 0.01 0.02 0.05 0.05 0.05 0.06 0.04 0.03 0.02 0.01 0.00 0.00 0.00 0.01 0.01 0.02 0.02 0.02 0.02 0.03 0.03 0.02 0.02 0.02 0.01 0.02 0.03 0.03 0.03 0.02 0.03 0.02 0.02 0.03 0.03 0.02 0.02
0.03 0.04 0.07 0.07 0.03 0.04 0.05 0.06 0.06 0.07 0.05 0.03 0.02 0.02 0.03 0.03 0.03 0.06 0.07 0.05 0.03 0.01 0.01 0.00 0.00 0.01 0.01 0.01 0.02 0.01 0.00 0.00 0.01 0.01 0.01 0.01 0.01 0.02 0.01 0.03 0.04 0.03 0.03 0.02 0.02 0.02 0.02 0.01 0.01
0.03 0.05 0.05 0.06 0.03 0.03 0.05 0.04 0.03 0.05 0.05 0.04 0.04 0.02 0.02 0.02 0.03 0.05 0.05 0.04 0.03 0.01 0.01 0.00 0.01 0.01 0.01 0.01 0.01 0.01 0.00 0.00 0.00 0.00 0.01 0.01 0.00 0.01 0.01 0.01 0.03 0.02 0.01 0.02 0.02 0.01 0.02 0.01 0.01
0.02 0.04 0.03 0.04 0.02 0.02 0.03 0.03 0.02 0.02 0.03 0.03 0.05 0.04 0.02 0.02 0.02 0.03 0.05 0.05 0.04 0.04 0.03 0.01 0.02 0.03 0.02 0.01 0.01 0.00 0.00 0.01 0.01 0.01 0.01 0.00 0.01 0.01 0.01 0.01 0.01 0.01 0.01 0.02 0.02 0.01 0.01 0.01 0.01
0.02 0.06 0.04 0.02 0.01 0.01 0.01 0.01 0.01 0.01 0.01 0.02 0.05 0.06 0.04 0.04 0.04 0.03 0.03 0.04 0.04 0.04 0.03 0.02 0.03 0.04 0.03 0.02 0.01 0.00 0.01 0.01 0.01 0.01 0.02 0.01 0.01 0.01 0.01 0.01 0.01 0.02 0.02 0.01 0.01 0.01 0.01 0.01 0.01
0.02 0.04 0.03 0.02 0.01 0.01 0.02 0.02 0.02 0.02 0.01 0.01 0.03 0.05 0.04 0.03 0.03 0.03 0.02 0.03 0.03 0.04 0.04 0.03 0.04 0.04 0.02 0.02 0.01 0.01 0.01 0.00 0.00 0.01 0.01 0.01 0.01 0.01 0.01 0.01 0.01 0.02 0.02 0.01 0.01 0.02 0.01 0.01 0.01
0.01 0.03 0.03 0.03 0.02 0.02 0.02 0.03 0.03 0.02 0.02 0.03 0.02 0.03 0.03 0.02 0.01 0.02 0.02 0.03 0.05 0.04 0.04 0.04 0.05 0.05 0.02 0.01 0.01 0.01 0.00 0.00 0.00 0.00 0.01 0.01 0.01 0.01 0.00 0.00 0.01 0.01 0.01 0.01 0.01 0.02 0.02 0.01 0.01
0.02 0.02 0.04 0.02 0.01 0.01 0.02 0.02 0.02 0.02 0.02 0.04 0.03 0.03 0.04 0.04 0.02 0.01 0.01 0.02 0.04 0.04 0.03 0.04 0.06 0.03 0.01 0.01 0.01 0.01 0.01 0.01 0.01 0.00 0.00 0.01 0.01 0.01 0.00 0.00 0.01 0.01 0.01 0.01 0.01 0.01 0.01 0.02 0.04
0.03 0.03 0.04 0.02 0.01 0.01 0.02 0.02 0.02 0.01 0.01 0.01 0.03 0.03 0.03 0.05 0.04 0.02 0.01 0.01 0.02 0.03 0.03 0.02 0.03 0.02 0.01 0.01 0.01 0.01 0.02 0.02 0.01 0.01 0.01 0.01 0.01 0.01 0.01 0.01 0.01 0.01 0.01 0.01 0.01 0.01 0.02 0.04 0.04
0.02 0.02 0.02 0.01 0.01 0.01 0.02 0.02 0.01 0.01 0.01 0.01 0.02 0.03 0.04 0.05 0.04 0.03 0.03 0.02 0.01 0.02 0.02 0.02 0.02 0.02 0.02 0.01 0.02 0.02 0.03 0.03 0.02 0.02 0.02 0.01 0.02 0.01 0.01 0.02 0.03 0.02 0.01 0.01 0.01 0.02 0.05 0.05 0.02
0.01 0.01 0.01 0.01 0.01 0.01 0.01 0.01 0.01 0.01 0.01 0.01 0.01 0.01 0.01 0.02 0.02 0.04 0.05 0.04 0.02 0.01 0.01 0.02 0.02 0.01 0.01 0.01 0.01 0.01 0.02 0.02 0.02 0.02 0.01 0.01 0.02 0.01 0.02 0.03 0.03 0.02 0.01 0.02 0.02 0.03 0.03 0.01 0.01
0.02 0.01 0.02 0.02 0.01 0.01 0.01 0.01 0.01 0.01 0.01 0.01 0.01 0.01 0.01 0.01 0.01 0.02 0.01 0.01 0.01 0.01 0.01 0.01 0.02 0.02 0.02 0.02 0.01 0.01 0.01 0.02 0.01 0.01 0.01 0.01 0.01 0.01 0.02 0.03 0.03 0.03 0.02 0.02 0.02 0.02 0.01 0.01 0.01
0.01 0.02 0.02 0.01 0.01 0.01 0.02 0.01 0.01 0.01 0.01 0.01 0.01 0.01 0.01 0.01 0.01 0.01 0.00 0.00 0.01 0.01 0.01 0.01 0.02 0.03 0.02 0.02 0.02 0.01 0.01 0.01 0.01 0.00 0.01 0.00 0.00 0.01 0.01 0.01 0.01 0.02 0.03 0.03 0.03 0.03 0.02 0.02 0.02
0.02 0.01 0.01 0.01 0.01 0.01 0.02 0.01 0.01 0.01 0.01 0.01 0.01 0.01 0.01 0.00 0.00 0.00 0.00 0.00 0.00 0.00 0.00 0.01 0.01 0.02 0.02 0.03 0.02 0.01 0.00 0.01 0.01 0.00 0.01 0.01 0.00 0.00 0.00 0.00 0.01 0.02 0.04 0.03 0.03 0.03 0.03 0.02 0.02
0.02 0.01 0.01 0.02 0.01 0.01 0.01 0.01 0.01 0.01 0.02 0.02 0.01 0.01 0.01 0.00 0.00 0.00 0.00 0.00 0.00 0.01 0.01 0.01 0.02 0.02 0.02 0.03 0.03 0.01 0.01 0.01 0.01 0.01 0.00 0.00 0.00 0.00 0.00 0.01 0.01 0.02 0.03 0.02 0.03 0.02 0.03 0.03 0.02
0.01 0.01 0.01 0.02 0.01 0.01 0.01 0.01 0.01 0.02 0.03 0.03 0.02 0.01 0.01 0.01 0.00 0.00 0.00 0.00 0.00 0.00 0.01 0.02 0.02 0.02 0.02 0.03 0.03 0.02 0.02 0.01 0.01 0.01 0.01 0.01 0.00 0.00 0.01 0.01 0.01 0.01 0.02 0.02 0.02 0.02 0.02 0.03 0.02
0.01 0.02 0.02 0.02 0.02 0.02 0.02 0.02 0.04 0.05 0.02 0.01 0.01 0.01 0.01 0.01 0.01 0.00 0.00 0.01 0.01 0.00 0.01 0.02 0.02 0.01 0.02 0.03 0.02 0.02 0.02 0.02 0.01 0.01 0.01 0.01 0.01 0.01 0.01 0.01 0.01 0.01 0.01 0.01 0.01 0.01 0.02 0.02 0.02
0.01 0.01 0.03 0.03 0.03 0.04 0.05 0.06 0.07 0.02 0.00 0.00 0.01 0.01 0.01 0.01 0.01 0.01 0.01 0.01 0.01 0.01 0.01 0.01 0.01 0.01 0.02 0.03 0.03 0.04 0.03 0.02 0.02 0.01 0.01 0.01 0.02 0.01 0.01 0.01 0.01 0.01 0.02 0.01 0.01 0.01 0.02 0.01 0.01
0.01 0.01 0.02 0.03 0.04 0.04 0.03 0.05 0.04 0.00 0.00 0.00 0.01 0.01 0.01 0.01 0.01 0.01 0.01 0.02 0.02 0.01 0.01 0.02 0.02 0.02 0.02 0.02 0.03 0.04 0.03 0.03 0.03 0.03 0.02 0.02 0.01 0.01 0.01 0.01 0.01 0.01 0.01 0.00 0.01 0.01 0.01 0.01 0.01
0.01 0.01 0.01 0.02 0.03 0.04 0.05 0.07 0.05 0.01 0.00 0.01 0.01 0.01 0.02 0.01 0.01 0.02 0.03 0.03 0.03 0.02 0.02 0.02 0.03 0.03 0.03 0.02 0.02 0.03 0.03 0.03 0.03 0.04 0.04 0.03 0.02 0.01 0.01 0.00 0.00 0.01 0.01 0.00 0.00 0.00 0.01 0.01 0.01
0.01 0.01 0.01 0.01 0.02 0.04 0.07 0.07 0.03 0.01 0.00 0.00 0.01 0.03 0.03 0.03 0.02 0.02 0.03 0.04 0.05 0.04 0.03 0.03 0.04 0.04 0.03 0.02 0.02 0.03 0.03 0.04 0.04 0.04 0.03 0.02 0.01 0.01 0.01 0.00 0.00 0.00 0.01 0.01 0.00 0.00 0.00 0.01 0.01
0.01 0.01 0.01 0.01 0.01 0.02 0.03 0.04 0.02 0.01 0.01 0.01 0.01 0.03 0.05 0.06 0.04 0.02 0.02 0.02 0.03 0.04 0.04 0.05 0.04 0.04 0.04 0.04 0.03 0.03 0.04 0.04 0.04 0.03 0.02 0.02 0.01 0.01 0.00 0.00 0.00 0.00 0.00 0.00 0.00 0.00 0.01 0.01 0.01

GEFSSGP_prec_meanprec_252.txt.gz
QPF
0.02 0.02 0.03 0.04 0.03 0.01 0.02 0.03 0.02 0.02 0.04 0.04 0.02 0.03 0.02 0.01 0.01 0.01 0.01 0.03 0.04 0.02 0.03 0.06 0.10 0.08 0.06 0.05 0.05 0.05 0.06 0.06 0.05 0.05 0.05 0.03 0.03 0.05 0.08 0.08 0.07 0.06 0.07 0.07 0.11 0.09 0.06 0.06 0.06
0.02 0.02 0.02 0.02 0.02 0.01 0.02 0.04 0.04 0.03 0.02 0.03 0.01 0.01 0.02 0.02 0.01 0.01 0.02 0.03 0.04 0.02 0.01 0.04 0.07 0.08 0.05 0.04 0.05 0.04 0.04 0.05 0.04 0.04 0.04 0.05 0.04 0.06 0.08 0.08 0.06 0.05 0.06 0.07 0.13 0.12 0.06 0.06 0.06
0.02 0.02 0.02 0.02 0.02 0.01 0.02 0.02 0.04 0.05 0.02 0.02 0.01 0.01 0.01 0.01 0.01 0.01 0.01 0.02 0.02 0.02 0.02 0.04 0.05 0.05 0.04 0.04 0.04 0.05 0.07 0.05 0.04 0.04 0.04 0.05 0.04 0.04 0.05 0.06 0.04 0.02 0.03 0.05 0.09 0.13 0.07 0.06 0.07
0.01 0.02 0.01 0.01 0.01 0.02 0.02 0.03 0.04 0.05 0.03 0.02 0.01 0.00 0.00 0.01 0.01 0.02 0.02 0.02 0.02 0.01 0.03 0.04 0.04 0.05 0.04 0.03 0.04 0.07 0.08 0.07 0.07 0.05 0.04 0.05 0.05 0.04 0.04 0.05 0.04 0.02 0.02 0.03 0.05 0.07 0.07 0.07 0.06
0.02 0.01 0.01 0.01 0.02 0.03 0.04 0.05 0.05 0.05 0.04 0.02 0.01 0.00 0.01 0.01 0.02 0.03 0.04 0.02 0.02 0.02 0.03 0.03 0.03 0.05 0.04 0.03 0.04 0.05 0.05 0.06 0.07 0.07 0.06 0.06 0.06 0.06 0.06 0.05 0.03 0.02 0.03 0.03 0.07 0.10 0.07 0.07 0.06
0.01 0.00 0.00 0.01 0.02 0.05 0.06 0.07 0.06 0.06 0.05 0.03 0.01 0.00 0.01 0.02 0.02 0.03 0.05 0.02 0.01 0.02 0.02 0.01 0.03 0.04 0.04 0.04 0.05 0.05 0.06 0.06 0.06 0.06 0.07 0.06 0.06 0.06 0.05 0.04 0.03 0.03 0.03 0.04 0.05 0.08 0.06 0.05 0.05
0.00 0.00 0.00 0.01 0.02 0.05 0.05 0.05 0.07 0.07 0.05 0.03 0.02 0.01 0.02 0.03 0.03 0.04 0.03 0.02 0.01 0.01 0.01 0.01 0.02 0.03 0.04 0.04 0.07 0.08 0.07 0.06 0.05 0.05 0.04 0.04 0.04 0.04 0.03 0.04 0.04 0.05 0.04 0.03 0.04 0.05 0.06 0.05 0.05
0.00 0.00 0.00 0.00 0.02 0.03 0.03 0.04 0.05 0.06 0.06 0.02 0.02 0.01 0.02 0.03 0.04 0.05 0.03 0.02 0.02 0.01 0.01 0.01 0.01 0.01 0.01 0.01 0.03 0.05 0.05 0.05 0.05 0.04 0.04 0.04 0.04 0.03 0.04 0.04 0.07 0.06 0.04 0.04 0.04 0.05 0.07 0.07 0.06
0.00 0.00 0.00 0.01 0.01 0.02 0.01 0.02 0.04 0.05 0.06 0.04 0.03 0.02 0.02 0.03 0.05 0.05 0.03 0.02 0.02 0.01 0.01 0.01 0.01 0.01 0.01 0.01 0.01 0.02 0.02 0.03 0.03 0.03 0.03 0.02 0.01 0.01 0.03 0.03 0.04 0.06 0.06 0.05 0.04 0.05 0.06 0.06 0.06
0.00 0.00 0.00 0.00 0.00 0.01 0.01 0.01 0.03 0.05 0.05 0.04 0.03 0.02 0.02 0.02 0.04 0.05 0.03 0.02 0.01 0.01 0.01 0.01 0.01 0.01 0.00 0.00 0.00 0.00 0.00 0.01 0.01 0.00 0.00 0.01 0.01 0.01 0.02 0.03 0.05 0.05 0.05 0.04 0.03 0.03 0.03 0.03 0.02
0.00 0.00 0.00 0.01 0.01 0.02 0.02 0.01 0.02 0.02 0.02 0.03 0.03 0.02 0.01 0.02 0.03 0.03 0.04 0.05 0.03 0.01 0.01 0.02 0.02 0.02 0.01 0.01 0.00 0.00 0.00 0.01 0.01 0.01 0.00 0.00 0.01 0.01 0.01 0.01 0.02 0.01 0.02 0.01 0.01 0.01 0.02 0.02 0.01
0.00 0.00 0.01 0.01 0.01 0.01 0.02 0.02 0.02 0.03 0.01 0.02 0.03 0.03 0.02 0.02 0.02 0.02 0.02 0.05 0.04 0.02 0.02 0.02 0.02 0.02 0.01 0.01 0.00 0.00 0.00 0.00 0.00 0.00 0.00 0.00 0.00 0.00 0.00 0.00 0.01 0.01 0.01 0.01 0.01 0.01 0.01 0.01 0.01
0.00 0.01 0.01 0.01 0.01 0.01 0.01 0.01 0.01 0.02 0.02 0.02 0.02 0.04 0.03 0.02 0.02 0.02 0.02 0.04 0.05 0.06 0.04 0.03 0.02 0.02 0.01 0.02 0.01 0.01 0.01 0.00 0.00 0.01 0.01 0.00 0.01 0.01 0.01 0.01 0.02 0.02 0.02 0.01 0.01 0.01 0.01 0.01 0.01
0.01 0.01 0.01 0.01 0.02 0.02 0.01 0.01 0.01 0.01 0.01 0.02 0.02 0.05 0.05 0.03 0.02 0.02 0.02 0.03 0.04 0.05 0.06 0.04 0.04 0.02 0.01 0.02 0.01 0.01 0.00 0.00 0.00 0.02 0.02 0.01 0.01 0.01 0.01 0.01 0.01 0.02 0.01 0.01 0.02 0.02 0.01 0.01 0.01
0.00 0.01 0.01 0.02 0.01 0.01 0.01 0.00 0.00 0.01 0.01 0.01 0.01 0.03 0.06 0.04 0.02 0.02 0.02 0.03 0.04 0.04 0.05 0.05 0.05 0.04 0.02 0.01 0.01 0.01 0.01 0.01 0.01 0.02 0.01 0.01 0.01 0.01 0.01 0.01 0.01 0.01 0.01 0.01 0.02 0.01 0.00 0.00 0.00
0.01 0.01 0.01 0.01 0.02 0.01 0.01 0.00 0.01 0.01 0.01 0.01 0.01 0.01 0.03 0.04 0.03 0.02 0.01 0.02 0.03 0.05 0.04 0.03 0.03 0.04 0.03 0.02 0.02 0.01 0.01 0.01 0.01 0.01 0.01 0.00 0.01 0.01 0.01 0.01 0.01 0.01 0.01 0.01 0.01 0.01 0.01 0.00 0.01
0.01 0.01 0.00 0.01 0.01 0.02 0.01 0.00 0.01 0.01 0.01 0.01 0.01 0.02 0.02 0.02 0.02 0.02 0.01 0.01 0.02 0.03 0.04 0.03 0.02 0.03 0.03 0.02 0.02 0.01 0.01 0.01 0.01 0.01 0.01 0.00 0.00 0.00 0.01 0.01 0.01 0.01 0.01 0.01 0.02 0.01 0.01 0.01 0.02
0.01 0.01 0.01 0.01 0.01 0.01 0.01 0.00 0.01 0.01 0.01 0.01 0.01 0.02 0.03 0.03 0.02 0.02 0.01 0.01 0.01 0.01 0.03 0.04 0.02 0.03 0.04 0.03 0.02 0.01 0.00 0.01 0.01 0.00 0.00 0.00 0.00 0.01 0.01 0.01 0.01 0.02 0.01 0.01 0.01 0.01 0.01 0.02 0.03
0.00 0.00 0.01 0.01 0.01 0.02 0.01 0.00 0.01 0.02 0.01 0.00 0.00 0.02 0.04 0.04 0.03 0.03 0.02 0.01 0.01 0.01 0.02 0.03 0.03 0.02 0.03 0.03 0.02 0.01 0.00 0.00 0.00 0.00 0.00 0.00 0.00 0.00 0.01 0.01 0.01 0.01 0.02 0.01 0.01 0.02 0.03 0.03 0.03
0.01 0.01 0.01 0.01 0.01 0.01 0.01 0.01 0.02 0.02 0.01 0.00 0.00 0.01 0.02 0.01 0.02 0.03 0.03 0.02 0.02 0.02 0.02 0.02 0.02 0.02 0.02 0.03 0.02 0.02 0.01 0.01 0.01 0.00 0.00 0.00 0.00 0.00 0.00 0.00 0.01 0.01 0.01 0.01 0.01 0.02 0.02 0.03 0.02
0.01 0.01 0.02 0.01 0.01 0.01 0.01 0.01 0.01 0.01 0.01 0.01 0.00 0.00 0.00 0.00 0.01 0.01 0.01 0.01 0.01 0.01 0.01 0.02 0.03 0.02 0.03 0.04 0.03 0.02 0.01 0.01 0.01 0.00 0.00 0.00 0.00 0.00 0.00 0.00 0.00 0.01 0.01 0.01 0.01 0.02 0.01 0.01 0.01
0.01 0.02 0.01 0.01 0.01 0.01 0.01 0.00 0.00 0.00 0.01 0.00 0.00 0.00 0.00 0.00 0.00 0.00 0.00 0.00 0.01 0.01 0.01 0.01 0.02 0.03 0.03 0.04 0.04 0.04 0.04 0.02 0.02 0.01 0.00 0.00 0.00 0.00 0.00 0.00 0.01 0.01 0.02 0.01 0.01 0.01 0.02 0.01 0.01
0.01 0.01 0.01 0.01 0.00 0.00 0.00 0.00 0.00 0.00 0.00 0.01 0.00 0.00 0.00 0.00 0.00 0.00 0.00 0.00 0.00 0.01 0.01 0.01 0.02 0.02 0.03 0.03 0.03 0.03 0.04 0.04 0.03 0.02 0.01 0.01 0.00 0.00 0.00 0.00 0.00 0.01 0.01 0.01 0.01 0.01 0.01 0.01 0.01
0.01 0.01 0.01 0.01 0.01 0.00 0.00 0.00 0.00 0.01 0.01 0.01 0.01 0.00 0.00 0.00 0.01 0.01 0.01 0.01 0.01 0.01 0.01 0.01 0.02 0.02 0.02 0.03 0.03 0.02 0.02 0.03 0.03 0.02 0.01 0.01 0.00 0.00 0.00 0.01 0.01 0.01 0.01 0.01 0.02 0.02 0.02 0.02 0.02
0.01 0.01 0.01 0.01 0.01 0.01 0.00 0.01 0.01 0.03 0.03 0.01 0.01 0.00 0.01 0.01 0.01 0.01 0.01 0.01 0.00 0.00 0.01 0.01 0.01 0.02 0.02 0.02 0.02 0.01 0.02 0.02 0.01 0.01 0.01 0.01 0.01 0.01 0.01 0.01 0.01 0.01 0.01 0.02 0.02 0.03 0.03 0.03 0.04
0.01 0.01 0.01 0.01 0.00 0.01 0.02 0.02 0.02 0.01 0.00 0.00 0.00 0.00 0.01 0.01 0.01 0.02 0.02 0.02 0.01 0.01 0.01 0.01 0.01 0.01 0.02 0.03 0.02 0.01 0.01 0.02 0.02 0.01 0.01 0.01 0.01 0.01 0.01 0.01 0.01 0.01 0.01 0.01 0.01 0.01 0.02 0.03 0.03
0.00 0.00 0.00 0.00 0.01 0.01 0.01 0.01 0.00 0.00 0.00 0.00 0.01 0.01 0.01 0.02 0.01 0.01 0.02 0.02 0.02 0.02 0.02 0.01 0.02 0.02 0.03 0.04 0.04 0.03 0.02 0.02 0.02 0.02 0.01 0.01 0.02 0.01 0.01 0.01 0.01 0.01 0.01 0.01 0.01 0.01 0.01 0.01 0.01
0.01 0.00 0.00 0.00 0.00 0.00 0.00 0.00 0.01 0.01 0.00 0.00 0.01 0.01 0.01 0.02 0.01 0.00 0.01 0.01 0.02 0.02 0.02 0.02 0.02 0.03 0.05 0.06 0.05 0.04 0.03 0.03 0.03 0.02 0.02 0.02 0.03 0.03 0.02 0.01 0.01 0.01 0.01 0.01 0.01 0.01 0.00 0.00 0.00
0.01 0.01 0.01 0.00 0.00 0.00 0.00 0.01 0.01 0.01 0.01 0.00 0.01 0.02 0.02 0.01 0.01 0.01 0.01 0.01 0.01 0.01 0.01 0.02 0.02 0.02 0.03 0.05 0.06 0.05 0.04 0.03 0.03 0.03 0.03 0.03 0.04 0.04 0.03 0.03 0.03 0.02 0.02 0.01 0.01 0.01 0.01 0.00 0.00
0.01 0.01 0.01 0.01 0.00 0.00 0.00 0.00 0.01 0.01 0.01 0.01 0.01 0.03 0.05 0.05 0.03 0.02 0.01 0.01 0.01 0.01 0.01 0.01 0.01 0.02 0.02 0.03 0.04 0.06 0.07 0.07 0.06 0.05 0.04 0.05 0.05 0.04 0.04 0.03 0.02 0.02 0.02 0.02 0.01 0.01 0.01 0.01 0.00